ATLAS 5 CENTAUR DEB, 44015

Orbit data source: Space-Track

ATLAS 5 CENTAUR DEB, 44015 is space debris in HEO originally from a launch on Wed, 17 Sep 2014 UTC launched from the Air Force Eastern Test Range (AFETR). Debris objects in space refer to the collection of defunct objects orbiting the Earth. Examples of debris include non-operational satellites, rocket bodies, and fragments generated from explosions, collisions, or faulty payload assembly.

Loading next visibility...
Identifier
44015, 2014-055BW
Orbit
HEO
Country
Flag of USUS
Related business
Flag of USUnited Launch Alliance/Lockheed Martin (US)
Manufacturer
Unknown
Mission
Spacecraft
Bus & Motor
Unknown
Mass
Unknown
Launch date (UTC)
2014-09-17 (12 years ago)
Launch vehicle
Unknown
Launch site
Air Force Eastern Test Range (AFETR)
Object type
Payload
Rocket body
Debris
Shape & HBR
Unknown shape, 1.1 m
Radar Cross Section
Medium (>0.1 m² and <1 m²)

Expand to show TLE details & history
Last TLE update: 4 days ago

TLE from 4 days ago
0 ATLAS 5 CENTAUR DEB
1 44015U 14055BW  26260.47933593 -.00000203  00000-0  00000-0 0  9994
2 44015  21.3083  75.8344 5090314 287.5555  24.5752  1.95141127 56369
Epoch: 2026-09-17T11:30Z
TLE epoch observation values (Epoch: 2026-09-17T11:30:14.624Z)
Latitude
0.00005°
Longitude
-93.10022°
Altitude
10,978.602 km
Speed
5.585 km/s
True Right ascension
05h 03m 30s
True Declination
0° 00' 00"
Sunlit
Object was in daylight at epoch
Visualization orbit readout
Latitude
Unknown
Longitude
Unknown
Altitude
Unknown
Speed
Unknown
Apparent Right ascension
Unknown
Apparent Declination
Unknown
Sunlit
N/A
Visualization observer readout
Local Sidereal Time
10:17:48
Azimuth
Unknown
Elevation
Unknown
Doppler factor
Unknown
Orbital elements
Apogee altitude
34,444.468 km
Perigee altitude
6,903.639 km
Semi-major axis
27,052.191 km
Eccentricity
0.50903
Inclination
21.3083°
RAAN
75.8344°
Arg. of periapsis
287.5555°
True anomaly
72.38829°
Mean anomaly
24.5752°
Eccentric anomaly
45.30922°
Mean motion
0.4878 °/min
Orbital period
738.01 mins
BSTAR
0
Loading maneuver chart data...
Computing Atmospheric mass density...

Documentation

Showing up to 5 results
|